Location: Azul
(36.7830°S, 59.8500°W)
Time: 19:18:37
(UTC-03:00)

ZACube-1 - Pass Details

Date: 23 October 2021
Orbit: 584 x 664 km, 97.6° (Epoch: 07 December)

Event Time Altitude Azimuth Distance (km) Brightness Sun altitude
Rises 03:26:49 0° 58° (ENE) 2,922 ? -28.4°
Reaches altitude 10° 03:29:53 10° 82° (E) 2,042 ? -27.9°
Maximum altitude 03:32:18 15° 115° (ESE) 1,773 ? -27.6°
Drops below altitude 10° 03:34:45 10° 148° (SSE) 2,081 ? -27.2°
Sets 03:37:55 0° 171° (S) 3,016 ? -26.7°
